Regional Weather Roundup
Issued by NWS

Home | Current Version | Previous Version | Text Only | Print | Product List | Glossary Off
Versions: 1 2 3 4 5 6 7 8 9 10 11 12 13 14 15 16 17 18 19 20 21 22 23 24 25 26 27 28 29 30 31 32 33 34 35 36 37 38 39 40 41 42 43 44 45 46 47 48 49 50

926
ASUS43 KIND 141559
RWRIN

WEATHER ROUNDUP FOR INDIANA
NATIONAL WEATHER SERVICE INDIANAPOLIS IN
1100 AM EST SUN FEB 14 2016

NOTE: "FAIR" INDICATES FEW OR NO CLOUDS BELOW 12,000 FEET WITH NO
SIGNIFICANT WEATHER AND/OR OBSTRUCTIONS TO VISIBILITY.

* - STATION DOES NOT REPORT WEATHER SUCH AS PRECIPITATION OR FOG.

+ - STATION NOT QUALITY CONTROLLED BY THE NATIONAL WEATHER SERVICE.
    USE DATA WITH CAUTION...ESPECIALLY DEWPOINT AND RELATIVE
    HUMIDITY OBSERVATIONS.

INZ001>003-010>013-019-020-141700-
NORTHWEST INDIANA

CITY           SKY/WX    TMP DP  RH WIND       PRES   REMARKS
GARY /AIRPORT/ CLOUDY    18   1  49 SE17      30.31R WCI   2

$$

LMZ046-743>745-141700-
SOUTHERN LAKE MICHIGAN

STATION/POSITION TIME  TEMP    WIND        PRES    WAVE
                       AIR SEA DIR/SP/G            HT
                 (UTC) (F)     (DEG/KT/KT) (MB)    (FT)
BURNS HARBOR     1500   14     130/ 13     1026.8F
MICHIGAN CITY    1500   12     100/ 15/ 20   N/A

$$

INZ004-005-014>016-021>024-141700-
NORTH CENTRAL INDIANA

CITY           SKY/WX    TMP DP  RH WIND       PRES   REMARKS
ELKHART        CLOUDY    12   1  62 MISG      30.32F
GOSHEN         CLOUDY    13   2  61 SE15      30.32F WCI  -3
SOUTH BEND     CLOUDY    11   2  67 SE22      30.31F WCI  -8

$$

INZ006>009-017-018-025>027-141700-
NORTHEAST INDIANA

CITY           SKY/WX    TMP DP  RH WIND       PRES   REMARKS
ANGOLA *+      SUNNY     12   3  67 SE14      30.35F WCI  -3
FORT WAYNE     CLOUDY    16   5  62 SE16G22   30.37F WCI   1

$$

INZ028-029-035-036-043>045-051>053-141700-
WEST CENTRAL INDIANA

CITY           SKY/WX    TMP DP  RH WIND       PRES   REMARKS
CRAWFORDSVL +  CLOUDY    15   6  65 SE16G22   30.27F WCI   0
GREENCASTLE +  CLOUDY    18   5  57 SE16G22   30.29F WCI   3
LAFAYETTE      CLOUDY    17   6  62 SE13      30.29F WCI   4
TERRE HAUTE    CLOUDY    19  11  70 SE15      30.28F WCI   5

$$

INZ030>032-037>040-046>048-054>057-064-065-141700-
CENTRAL INDIANA

CITY           SKY/WX    TMP DP  RH WIND       PRES   REMARKS
GREENWOOD *+   CLOUDY    18  12  79 SE12G18   30.31F WCI   5
INDIANAPOLIS   FLURRIES  18   8  65 SE17G23   30.29F WCI   3
-EAGLE CREEK   CLOUDY    17   8  67 SE12G21   30.29F WCI   4
KOKOMO *+      CLOUDY    16   5  62 SE15      30.30F WCI   1
MT COMFORT *+  CLOUDY    18   7  62 SE17      30.30F WCI   2
SHELBYVILLE    CLOUDY    18   9  68 SE17      30.31F WCI   3

$$

INZ033-034-041-042-049-050-058-059-141700-
EAST CENTRAL INDIANA

CITY           SKY/WX    TMP DP  RH WIND       PRES   REMARKS
MUNCIE         CLOUDY    16   3  56 SE14      30.33F WCI   2

$$

INZ060-061-067>069-081>083-085>088-141700-
SOUTHWEST INDIANA

CITY           SKY/WX    TMP DP  RH WIND       PRES   REMARKS
EVANSVILLE     LGT SNOW  25  14  63 SE10G21   30.27F WCI  15
HUNTINGBURG *+ CLOUDY    21   9  58 SE13      30.30S WCI   9

$$

INZ062-063-066-070>080-084-089>092-141700-
SOUTH CENTRAL AND SOUTHEAST INDIANA

CITY           SKY/WX    TMP DP  RH WIND       PRES   REMARKS
BLOOMINGTON    CLOUDY    18  10  71 SE14      30.29F WCI   4
MADISON *+     CLOUDY    19  12  73 SE9       30.37S WCI   9
SEYMOUR +      CLOUDY    21  12  68 SE10      30.36F WCI  10

$$





USA.gov is the U.S. government's official web portal to all federal, state and local government web resources and services.